Regional Weather Roundup
Issued by NWS

Home | Current Version | Previous Version | Text Only | Print | Product List | Glossary Off
Versions: 1 2 3 4 5 6 7 8 9 10 11 12 13 14 15 16 17 18 19 20 21 22 23 24 25 26 27 28 29 30 31 32 33 34 35 36 37 38 39 40 41 42 43 44 45 46 47 48 49 50

000
ASUS45 KBOU 281907
RWRCO

WEATHER ROUNDUP FOR COLORADO
NATIONAL WEATHER SERVICE DENVER/BOULDER CO
100 PM MDT SAT MAY 28 2016

NOTE: "FAIR" INDICATES FEW OR NO CLOUDS BELOW 12000 FEET WITH NO
SIGNIFICANT WEATHER AND/OR OBSTRUCTIONS TO VISIBILITY.

COZ001>005-013-030-031-282000-
...NORTHWEST COLORADO...

CITY           SKY/WX    TMP DP  RH WIND       PRES   REMARKS
CRAIG          PTSUNNY   65  36  34 W10       30.09F
HAYDEN         FAIR      59  36  41 S5        30.10F
MEEKER         PTSUNNY   64  31  28 VRB5G21   30.09F
MOUNT WERNER   NOT AVBL
STEAMBOAT SPGS CLOUDY    58  32  37 SW8       30.12S
WALDEN         CLOUDY    50  32  50 NW12      30.18R
$$

COZ006>008-011-282000-
...WEST CENTRAL VALLEYS...

CITY           SKY/WX    TMP DP  RH WIND       PRES   REMARKS
GRAND JUNCTION FAIR      71  35  26 S8        30.05F
MONTROSE       FAIR      68  23  18 E5        30.12S
EAGLE          MOSUNNY   64  30  27 NW6       30.11F
RIFLE          FAIR      70  32  24 VRB5      30.06F
DELTA          FAIR      75  30  19 S9        30.07F
NUCLA          FAIR      70  23  17 CALM      30.13F
$$

COZ017>023-064>068-282000-
...SOUTHWEST COLORADO...

CITY           SKY/WX    TMP DP  RH WIND       PRES   REMARKS
DURANGO        FAIR      66  25  21 CALM      30.12F
CORTEZ         PTSUNNY   70  30  22 VRB5      30.09F
PAGOSA SPRINGS PTSUNNY   62  25  24 S7        30.19S
TELLURIDE      FAIR      55  21  26 W5        30.25S
WOLF CREEK PAS CLOUDY    37  25  60 S13G22    30.39S
$$

COZ009-010-012-014-032>034-037-058>063-282000-
...CENTRAL COLORADO...

CITY           SKY/WX    TMP DP  RH WIND       PRES   REMARKS
ASPEN          LGT RAIN  54  30  40 NE10      30.17S
BUENA VISTA    PTSUNNY   60  20  20 NW6       30.15S
COPPER MTN     NOT AVBL
BERTHOUD PASS  FAIR      30  19  64 NW20G28   30.33S WCI  18
COTTONWOOD PAS CLOUDY    55  19  24 NW6       30.24F
GUNNISON       FAIR      57  30  35 NE7       30.20S
KREMMLING      LGT RAIN  50  36  57 NW13G23   30.20R
LEADVILLE      FAIR      50  26  39 NW9       30.24F
MONARCH PASS   FAIR      37  25  60 SW18G29   30.45S
SALIDA         FAIR      65  24  21 SW6G17    30.20S
SUNLIGHT       FAIR      46  30  53 CALM      30.33F
WILKERSON PASS FAIR      46  27  46 W6        30.33S
$$

COZ069>075-282000-
...SAN LUIS VALLEY/SANGRE DE CRISTO MOUNTAINS...

CITY           SKY/WX    TMP DP  RH WIND       PRES   REMARKS
ALAMOSA        FAIR      61  30  31 VRB5      30.17F
LA VETA PASS   FAIR      52  30  43 S8G21     30.29S
SAGUACHE       FAIR      61  32  33 W6        30.17F
$$

COZ035-036-038>040-282000-
...NORTHERN COLORADO FRONT RANGE...

CITY           SKY/WX    TMP DP  RH WIND       PRES   REMARKS
DENVER INTL AP FAIR      67  35  30 VRB3      30.03F
DMNS CITY PARK   N/A     70  33  25 SE6G14    30.01F
AURORA         PTSUNNY   65  33  30 N5        30.05F
FRONT RANGE AP PTSUNNY   66  41  39 SE14G21   30.05F
ERIE MUNI ARPT FAIR      71  36  28 E8        30.00F
BOULDER MUN AP FAIR      72  36  26 SE7       30.00F
CENTENNIAL     PTSUNNY   63  34  33 SW15      30.06R
BROOMFIELD     PTSUNNY   68  34  28 E7        30.04S
FORT COLLINS   FAIR      70  45  40 E6        30.01F
LONGMONT       FAIR      75  37  24 SE6       30.01F
$$

COZ041-046-047-076>085-087-088-282000-
...PIKES PEAK/PALMER DIVIDE AND SOUTHERN FOOTHILLS...

CITY           SKY/WX    TMP DP  RH WIND       PRES   REMARKS
COLO. SPRINGS  PTSUNNY   67  33  28 S8G20     30.09F
A. F. ACADEMY  DRIZZLE   63  32  31 SE8       30.08F
SCHRIEVER AFB  NOT AVBL
ELLICOTT       FAIR     N/A N/A N/A VRB3      30.08F
FALCON         FAIR      65  32  29 S8        30.12F
FORT CARSON    FAIR      67  36  31 VRB6      30.06F
LIMON          FAIR      65  38  36 VRB3      30.07S
MONUMENT HILL  FAIR      59  32  36 S3        30.12F
TRINIDAD       FAIR      69  36  29 E13       30.07S
$$

COZ042>045-048>051-090-091-282000-
...NORTHEAST COLORADO...

CITY           SKY/WX    TMP DP  RH WIND       PRES   REMARKS
GREELEY ARPT   FAIR      72  39  30 SE6       30.01F
AKRON          FAIR      67  46  47 VRB7      30.02F
BURLINGTON     FAIR      70  41  34 W5        30.03S
WRAY           NOT AVBL
STERLING       FAIR      72  45  37 SW6       29.97F
HOLYOKE        FAIR      73  45  35 W7        29.98F
FORT MORGAN    FAIR      69  40  34 SW8       30.02F
$$

COZ086-089-092>099-282000-
...SOUTHEAST COLORADO...

CITY           SKY/WX    TMP DP  RH WIND       PRES   REMARKS
PUEBLO         FAIR      73  37  27 S9        30.03S
LA JUNTA       FAIR      72  42  34 CALM      30.03S
LAMAR          FAIR      76  44  32 E5        29.99F
SPRINGFIELD      N/A     73  40  30 VRB3G20   30.02F
$$



USA.gov is the U.S. government's official web portal to all federal, state and local government web resources and services.